Date,TemperatureHighF,TemperatureAvgF,TemperatureLowF,DewpointHighF,DewpointAvgF,DewpointLowF,HumidityHigh,HumidityAvg,HumidityLow,PressureMaxIn,PressureMinIn,WindSpeedMaxMPH,WindSpeedAvgMPH,GustSpeedMaxMPH,PrecipitationSumIn
2013-1-1,33.6,26.0,10.9,24.0,13.3,0.0,70,55,44,28.28,28.13,33,6,33,0.00
2013-1-2,25.2,12.3,0.7,14.0,4.4,-6.0,89,67,48,28.49,28.24,24,3,24,0.00
2013-1-3,23.8,9.4,-3.8,16.0,0.9,-13.0,88,62,25,28.50,28.35,19,2,19,0.00
2013-1-4,38.7,28.2,18.6,21.0,16.9,14.0,88,63,39,28.35,28.25,24,3,25,0.00
2013-1-5,37.8,29.0,15.7,23.0,16.4,8.0,85,59,30,28.65,28.26,28,5,28,0.01
2013-1-6,38.1,27.0,17.1,28.0,21.6,16.0,93,80,56,28.59,28.36,12,1,12,0.12
2013-1-7,36.1,27.1,12.2,29.0,18.8,8.0,91,70,41,28.77,28.38,18,3,19,0.00
2013-1-8,44.7,23.8,8.9,26.0,14.5,8.0,93,71,30,28.75,28.64,13,2,14,0.16
2013-1-9,43.9,30.4,16.2,32.0,22.0,14.0,92,72,34,28.76,28.43,26,3,26,0.19
2013-1-10,42.9,35.9,21.5,28.0,19.8,16.0,87,52,36,28.93,28.53,28,6,28,0.10
2013-1-11,36.4,27.3,19.1,32.0,23.9,16.0,95,86,48,28.93,28.60,6,1,6,0.26
2013-1-12,44.3,35.2,32.4,40.0,33.8,31.0,95,94,86,28.62,28.56,5,1,5,0.18
2013-1-13,42.9,34.2,32.9,40.0,33.2,32.0,96,95,88,28.58,28.53,4,1,4,0.00
2013-1-14,51.6,40.8,32.3,47.5,29.9,18.0,97,66,38,28.71,28.35,19,3,21,0.06
2013-1-15,37.9,30.4,23.2,24.0,21.0,16.0,91,67,44,28.75,28.62,16,2,16,0.00
2013-1-16,32.7,29.0,26.1,31.0,26.1,21.0,94,87,73,28.64,28.23,10,0,11,0.02
2013-1-17,38.0,29.6,20.9,26.0,19.1,0.0,91,64,39,28.52,28.24,33,3,33,0.13
2013-1-18,21.0,14.7,6.6,8.0,-3.2,-13.0,78,41,28,28.75,28.44,19,3,20,0.00
2013-1-19,45.9,28.6,13.9,23.0,11.6,4.0,75,48,27,28.66,28.38,19,2,19,0.15
2013-1-20,48.9,33.1,19.1,32.0,15.5,4.0,90,48,26,28.36,28.04,24,6,24,0.06
2013-1-21,24.4,17.6,10.5,18.0,6.8,0.0,91,61,35,28.43,28.14,13,2,16,0.00
2013-1-22,17.6,12.0,5.2,14.0,-0.1,-13.0,93,56,29,28.41,28.12,20,3,22,0.00
2013-1-23,8.1,0.7,-5.4,-6.0,-9.5,-13.0,68,54,44,28.47,28.39,18,2,18,0.00
2013-1-24,13.6,8.9,1.2,-6.0,-12.8,-13.0,49,35,29,28.51,28.45,23,7,23,0.00
2013-1-25,21.7,10.0,0.5,11.0,-7.9,-13.0,85,42,18,28.66,28.42,26,2,26,0.00
2013-1-26,19.2,9.4,0.1,8.0,-1.4,-6.0,85,60,33,28.62,28.36,20,3,20,0.00
2013-1-27,19.9,11.3,6.6,4.0,0.3,-6.0,71,55,33,28.83,28.61,17,3,19,0.00
2013-1-28,22.0,18.0,8.3,21.0,11.5,0.0,90,73,41,28.82,28.40,4,0,4,0.00
2013-1-29,34.0,27.6,21.4,32.0,25.2,18.0,94,89,76,28.59,28.40,5,0,5,0.27
2013-1-30,51.7,39.5,32.3,50.0,38.1,31.0,97,94,83,28.53,27.91,12,1,12,0.33
2013-1-31,56.4,38.4,22.8,53.0,27.1,8.0,96,64,33,28.02,27.49,38,5,38,0.90
2013-2-1,25.4,20.9,15.5,16.0,6.5,0.0,80,50,35,28.47,28.02,27,5,27,0.00
2013-2-2,27.8,15.9,5.9,14.0,3.3,-6.0,81,54,28,28.58,28.42,24,3,24,0.01
2013-2-3,25.2,15.8,9.2,16.0,11.1,8.0,91,78,52,28.42,28.15,9,1,9,0.00
2013-2-4,24.0,19.4,12.2,14.0,8.1,0.0,80,57,38,28.30,28.13,24,4,25,0.00
2013-2-5,33.2,22.3,14.5,18.0,10.5,4.0,80,58,34,28.40,28.30,6,1,7,0.00
2013-2-6,33.6,22.4,13.2,23.0,10.5,-6.0,93,62,28,28.68,28.29,24,3,27,0.01
2013-2-7,34.7,20.1,8.8,8.0,1.9,-6.0,77,44,21,28.89,28.67,22,1,22,0.01
2013-2-8,24.9,20.9,16.5,23.0,14.3,0.0,92,75,37,28.81,28.16,17,2,18,0.00
2013-2-9,22.6,17.2,12.2,18.0,5.4,-13.0,93,59,25,28.62,28.14,28,6,28,0.00
2013-2-10,47.4,12.5,-2.1,11.0,0.0,-13.0,76,58,11,28.84,28.62,6,2,6,0.24
2013-2-11,37.7,26.1,12.5,35.0,22.4,8.0,95,83,60,28.69,28.09,19,0,19,0.02
2013-2-12,38.6,35.2,30.9,29.0,22.8,16.0,81,60,48,28.34,28.10,33,6,33,0.22
2013-2-13,44.5,31.3,23.9,23.0,19.0,14.0,84,60,29,28.30,28.15,17,3,17,0.06
2013-2-14,48.7,30.9,16.1,23.0,16.8,14.0,88,59,24,28.41,28.15,11,2,12,0.01
2013-2-15,51.5,35.6,27.4,28.0,24.6,21.0,86,66,31,28.42,28.36,11,2,11,0.01
2013-2-16,34.9,30.8,28.0,26.0,16.9,11.0,83,54,39,28.42,28.33,13,3,13,0.00
2013-2-17,17.6,14.6,8.9,0.0,-1.4,-6.0,49,43,39,28.15,27.94,33,8,33,0.02
2013-2-18,25.9,14.1,6.1,4.0,-4.5,-6.0,59,40,20,28.53,28.14,35,6,35,0.00
2013-2-19,38.9,23.3,12.4,35.0,15.8,0.0,91,69,34,28.54,28.17,9,1,10,0.07
2013-2-20,29.4,25.3,24.3,23.0,13.6,11.0,72,56,49,28.13,28.05,20,3,20,0.00
2013-2-21,24.8,21.4,17.7,8.0,6.7,4.0,64,48,42,28.48,28.27,25,8,25,0.00
2013-2-24,39.9,34.2,32.9,33.0,30.9,16.0,95,88,34,28.79,28.23,4,0,4,0.00
2013-2-25,27.4,24.4,21.9,24.0,22.0,18.0,93,88,82,28.46,28.41,6,1,6,0.00
2013-2-26,37.1,35.2,25.3,26.0,24.1,23.0,93,64,57,28.70,28.64,5,1,5,0.04
2013-2-27,34.7,33.4,32.6,33.0,32.5,31.0,95,95,94,28.35,28.07,11,1,12,0.05
2013-2-28,46.7,34.4,29.5,41.0,32.1,28.0,95,91,69,28.08,28.01,2,0,2,0.58
2013-3-1,40.5,34.4,29.2,33.0,26.4,18.0,95,73,48,28.17,28.01,16,2,18,0.58
2013-3-2,36.2,32.1,27.8,23.0,21.4,16.0,72,62,55,28.17,28.11,16,4,17,0.04
2013-3-3,33.4,26.2,22.9,21.0,17.8,14.0,79,69,53,28.11,28.07,17,4,17,0.01
2013-3-4,34.1,26.3,21.9,18.0,15.5,14.0,72,62,46,28.25,28.08,29,5,29,0.02
2013-3-5,45.2,32.7,24.7,29.0,20.7,16.0,85,62,37,28.52,28.25,18,2,19,0.26
2013-3-6,36.2,33.2,30.1,32.0,27.6,23.0,90,79,61,28.56,28.47,15,2,15,0.11
2013-3-7,35.5,31.3,28.2,31.0,26.0,21.0,92,80,55,28.53,28.47,20,2,20,0.09
2013-3-8,41.1,33.5,27.2,32.0,25.0,18.0,93,72,41,28.65,28.42,16,2,16,0.28
2013-3-9,61.7,36.4,19.4,29.0,15.3,-6.0,89,57,6,28.79,28.61,10,2,12,0.10
2013-3-10,56.9,36.0,18.8,31.0,22.2,16.0,92,63,21,28.84,28.70,7,2,7,0.00
2013-3-11,48.2,39.8,29.6,38.0,30.6,23.0,92,71,39,28.72,28.56,15,1,15,0.00
2013-3-12,48.9,43.7,38.5,47.5,41.3,31.0,97,91,73,28.57,28.18,24,2,24,1.18
2013-3-13,45.8,36.1,27.8,32.0,22.2,14.0,92,59,28,28.29,28.23,22,4,24,0.00
2013-3-14,31.3,23.8,19.6,18.0,9.6,4.0,75,52,39,28.25,28.18,26,5,26,0.01
2013-3-15,37.0,27.0,17.4,28.0,13.0,0.0,88,55,22,28.26,28.08,23,4,29,0.00
2013-3-16,40.3,27.5,13.8,21.0,9.6,4.0,79,46,22,28.30,28.13,19,2,19,0.03
2013-3-17,33.9,23.1,12.2,14.0,5.6,-6.0,82,47,20,28.69,28.29,28,4,29,0.00
2013-3-18,38.9,22.6,4.9,23.0,3.3,-6.0,87,47,14,28.81,28.57,8,2,9,0.00
2013-3-19,32.7,28.2,24.2,31.0,26.4,21.0,94,91,86,28.57,28.13,13,1,16,0.00
2013-3-20,35.3,25.4,15.5,26.0,15.4,11.0,90,64,42,28.21,28.12,22,4,22,0.04
2013-3-21,39.2,23.8,8.3,18.0,8.5,4.0,91,55,21,28.20,28.06,14,3,15,0.18
2013-3-22,35.6,26.9,19.9,21.0,13.8,8.0,72,55,42,28.20,28.04,19,4,21,0.03
2013-3-23,36.7,31.3,25.7,21.0,15.6,11.0,72,51,37,28.26,28.14,26,5,27,0.00
2013-3-24,45.4,33.0,20.6,23.0,17.3,14.0,80,53,30,28.31,28.20,12,3,18,0.20
2013-3-25,42.9,33.0,22.6,28.0,20.8,16.0,83,61,38,28.20,28.00,12,2,13,0.00
2013-3-26,44.7,34.8,24.9,28.0,21.8,11.0,85,60,27,28.25,28.03,19,3,19,0.00
2013-3-27,51.2,37.5,23.7,28.0,20.9,16.0,78,51,28,28.37,28.22,22,4,23,0.00
2013-3-28,50.2,38.9,32.6,31.0,27.2,24.0,87,63,38,28.52,28.34,17,2,17,0.01
2013-3-29,50.4,41.6,32.8,31.0,25.9,23.0,76,54,35,28.58,28.51,21,4,21,0.00
2013-3-30,53.9,40.2,27.8,28.0,20.9,8.0,90,53,17,28.60,28.50,14,3,19,0.00
2013-3-31,54.7,39.0,24.2,36.0,23.2,14.0,94,60,19,28.57,28.20,16,2,18,0.11
2013-4-1,54.9,38.4,28.1,43.0,28.4,8.0,96,70,31,28.24,28.09,29,4,38,0.31
2013-4-2,33.4,28.2,22.7,21.0,11.2,4.0,79,47,28,28.38,28.24,24,6,34,0.00
2013-4-3,39.5,30.5,23.6,18.0,9.0,4.0,64,38,23,28.60,28.35,29,7,32,0.00
2013-4-4,55.7,37.2,21.9,24.0,13.1,4.0,71,40,12,28.74,28.45,28,3,28,0.00
2013-4-5,56.9,39.9,25.8,28.0,19.1,4.0,86,49,14,28.45,28.26,22,3,23,0.00
2013-4-6,46.4,33.0,24.7,26.0,7.7,-6.0,76,36,11,28.74,28.37,26,4,26,0.00
2013-4-7,56.6,37.0,22.1,40.0,21.6,11.0,94,59,20,28.71,28.44,17,2,19,0.05
2013-4-8,69.3,47.9,32.6,38.0,30.2,18.0,95,56,15,28.64,28.42,18,3,21,0.00
2013-4-9,62.1,48.9,36.1,50.0,37.0,33.0,95,67,35,28.57,28.37,28,3,29,0.06
2013-4-10,62.2,49.7,40.3,51.0,43.7,36.0,96,82,49,28.54,28.38,6,1,6,0.39
2013-4-11,50.8,43.6,34.3,47.5,34.3,23.0,94,72,43,28.59,28.36,12,1,12,0.22
2013-4-12,34.7,32.8,31.7,33.0,31.4,29.0,94,92,86,28.59,28.27,12,1,13,0.17
2013-4-13,50.0,39.5,32.4,40.0,33.4,28.0,94,80,44,28.42,28.25,11,1,11,0.55
2013-4-14,47.7,40.0,27.5,35.0,23.8,18.0,94,54,34,28.66,28.38,21,4,21,0.19
2013-4-15,62.5,42.8,25.3,35.0,26.3,21.0,93,59,23,28.87,28.65,9,2,9,0.00
2013-4-16,66.7,49.9,34.0,53.0,39.3,26.0,91,69,33,28.85,28.60,16,2,16,0.06
2013-4-17,63.9,50.6,35.7,52.0,30.8,21.0,92,52,19,28.84,28.62,24,3,27,0.03
2013-4-18,60.1,47.0,29.6,43.0,28.1,23.0,90,53,24,28.89,28.64,16,2,16,0.00
2013-4-19,70.1,59.4,46.9,59.0,51.9,42.0,94,77,56,28.64,28.20,26,2,26,0.05
2013-4-20,54.1,44.9,33.2,47.0,28.3,16.0,88,55,25,28.72,28.18,26,5,26,0.41
2013-4-21,54.1,37.8,27.6,21.0,13.4,0.0,69,39,12,29.07,28.72,23,3,29,0.00
2013-4-22,58.2,40.9,25.3,24.0,18.0,11.0,73,44,15,29.21,29.00,12,2,14,0.00
2013-4-23,41.8,37.2,31.5,36.0,29.0,23.0,86,71,65,29.00,28.62,8,1,8,0.00
2013-4-24,76.8,57.2,39.0,45.0,35.9,14.0,90,53,15,28.62,28.34,13,2,13,0.00
2013-4-25,57.4,46.7,32.7,49.0,27.5,11.0,87,51,16,28.73,28.33,28,4,28,0.05
2013-4-26,61.8,45.0,27.5,31.0,24.5,16.0,88,50,21,28.92,28.72,19,2,19,0.00
2013-4-27,67.6,48.0,30.6,36.0,26.2,14.0,89,50,13,28.93,28.80,10,2,11,0.00
2013-4-28,72.8,54.4,33.1,39.0,29.5,24.0,87,44,18,28.88,28.73,11,2,11,0.00
2013-4-29,64.8,52.7,41.8,39.0,30.5,21.0,70,44,26,28.80,28.71,16,2,16,0.01
2013-4-30,73.6,56.0,42.5,40.0,31.0,14.0,84,47,11,28.88,28.74,9,2,9,0.00
2013-5-1,75.8,55.5,34.1,38.0,26.6,14.0,73,40,11,29.04,28.82,9,2,10,0.00
2013-5-2,81.2,60.4,39.1,46.0,32.5,18.0,91,44,11,29.03,28.89,11,1,11,0.00
2013-5-3,71.1,53.5,35.7,40.0,31.9,21.0,85,48,21,29.03,28.86,10,2,10,0.00
2013-5-4,74.4,54.8,37.7,50.5,32.9,18.0,93,52,13,28.89,28.78,16,2,17,0.00
2013-5-5,74.4,51.2,30.4,36.0,28.8,18.0,88,50,14,28.83,28.72,7,2,9,0.00
2013-5-6,75.6,54.2,32.5,49.0,34.3,21.0,93,56,13,28.82,28.67,7,2,9,0.00
2013-5-7,81.4,62.1,40.9,56.5,40.7,21.0,95,56,11,28.77,28.64,11,1,11,0.00
2013-5-8,71.7,59.6,47.9,60.0,52.7,46.0,93,80,44,28.76,28.59,17,1,17,0.39
2013-5-9,70.6,57.9,50.1,58.0,52.8,47.0,94,84,47,28.59,28.45,8,1,8,0.43
2013-5-10,77.2,62.3,47.7,65.0,49.4,37.0,96,68,25,28.60,28.43,12,1,12,0.01
2013-5-11,67.1,60.3,55.4,61.0,56.2,51.0,94,86,70,28.46,28.25,9,1,11,1.08
2013-5-12,63.9,52.9,34.9,56.5,38.9,21.0,94,63,25,28.31,28.18,21,3,22,0.00
2013-5-13,49.5,42.3,33.4,32.0,24.8,18.0,89,50,30,28.52,28.30,24,3,24,0.00
2013-5-14,54.9,44.2,32.2,32.0,24.5,16.0,87,48,24,28.58,28.48,17,2,17,0.00
2013-5-15,63.0,45.6,27.6,50.5,36.8,23.0,93,75,25,28.52,28.20,15,1,17,0.08
2013-5-16,76.9,63.1,43.2,50.0,32.0,21.0,93,39,14,28.39,28.17,26,4,27,0.00
2013-5-17,68.6,56.4,40.0,39.0,32.4,23.0,89,45,18,28.70,28.39,17,3,17,0.00
2013-5-18,69.7,47.3,41.8,45.0,41.6,36.0,90,83,29,28.85,28.76,2,0,2,0.00
2013-5-19,62.3,52.8,41.8,54.5,48.1,40.0,94,85,57,28.88,28.70,11,1,14,0.14
2013-5-20,79.8,64.2,52.9,60.5,55.0,50.5,93,75,43,28.71,28.55,19,2,19,0.01
2013-5-21,88.7,67.9,53.8,67.5,57.3,48.0,95,74,27,28.58,28.46,14,1,14,0.79
2013-5-22,79.3,64.3,52.2,68.5,59.8,49.0,94,86,58,28.52,28.42,12,1,12,1.01
2013-5-23,75.5,67.1,62.4,66.0,62.9,59.0,94,87,56,28.50,28.40,12,1,12,0.58
2013-5-24,63.9,58.2,52.4,60.5,52.1,45.0,93,80,69,28.36,28.27,17,3,17,0.05
2013-5-25,46.6,42.4,39.4,42.0,38.1,35.0,88,84,79,28.32,28.29,16,4,21,1.11
2013-5-26,55.1,45.2,35.7,41.0,36.5,33.0,93,72,49,28.58,28.24,25,4,25,0.10
2013-5-27,70.1,54.7,35.4,43.0,33.2,23.0,94,50,19,28.72,28.56,22,4,22,0.00
2013-5-28,72.8,57.2,37.3,53.0,39.9,32.0,94,59,25,28.81,28.66,7,1,8,0.00
2013-5-29,72.6,61.6,55.6,63.5,57.6,52.0,93,87,68,28.70,28.54,16,0,23,0.45
2013-5-30,85.2,70.0,55.3,68.5,59.1,53.5,96,72,35,28.76,28.60,14,2,14,0.00
2013-5-31,90.7,74.1,58.9,75.5,57.6,43.0,96,65,20,28.78,28.60,15,1,15,0.00
2013-6-1,90.7,75.5,60.3,70.5,58.7,40.0,94,62,19,28.67,28.50,14,1,14,0.00
2013-6-2,87.3,73.7,64.4,69.3,61.7,54.5,94,70,35,28.50,28.40,17,2,17,0.43
2013-6-3,73.8,63.8,43.5,64.0,52.7,36.0,94,70,38,28.47,28.38,15,2,15,0.05
2013-6-4,71.6,57.2,42.4,47.5,37.9,31.0,83,51,27,28.63,28.38,18,3,19,0.00
2013-6-5,73.4,58.2,42.9,59.5,41.2,29.0,94,61,22,28.79,28.62,11,1,11,0.00
2013-6-6,70.9,58.4,45.9,57.0,46.8,38.0,93,69,33,28.75,28.62,11,1,11,0.23
2013-6-7,54.3,52.2,50.9,52.0,49.9,49.0,93,92,90,28.62,28.35,9,1,9,2.29
2013-6-8,70.7,59.3,50.1,57.0,52.0,47.5,94,78,51,28.57,28.22,19,2,23,0.98
2013-6-9,77.3,61.9,47.9,55.0,48.7,41.0,95,67,31,28.76,28.57,17,2,18,0.00
2013-6-10,69.5,58.1,49.9,61.5,54.8,48.0,94,89,57,28.78,28.51,6,1,7,1.46
2013-6-11,61.9,58.1,54.7,58.0,55.5,53.0,94,91,81,28.51,28.15,14,1,14,1.35
2013-6-12,69.8,60.1,49.9,54.5,48.8,41.0,93,68,40,28.41,28.15,20,4,23,0.01
2013-6-13,56.0,51.9,45.8,54.0,50.3,44.0,95,94,93,28.36,28.21,9,1,9,1.75
2013-6-14,74.6,58.9,49.2,60.0,50.0,36.0,95,77,29,28.38,28.20,10,1,10,0.61
2013-6-15,75.3,61.8,48.8,53.5,42.7,31.0,95,58,21,28.57,28.38,18,2,18,0.00
2013-6-16,72.9,62.9,46.3,57.0,48.4,41.0,90,62,35,28.54,28.32,16,1,16,0.00
2013-6-17,81.6,65.6,54.3,62.0,54.2,45.0,95,72,30,28.52,28.37,21,2,21,0.23
2013-6-18,68.1,58.4,52.2,63.0,55.9,50.5,96,91,79,28.53,28.43,8,0,9,0.56
2013-6-19,72.9,58.9,45.5,59.5,43.2,29.0,97,64,23,28.68,28.44,11,2,11,0.00
2013-6-20,78.6,60.9,41.1,59.5,43.5,29.0,96,62,17,28.87,28.67,12,1,12,0.00
2013-6-21,83.1,66.3,50.3,66.0,49.5,36.0,96,63,20,28.90,28.74,11,1,11,0.00
2013-6-22,84.5,70.0,54.6,66.7,55.0,45.0,95,65,28,28.86,28.72,17,1,19,0.00
2013-6-23,89.7,74.9,60.7,69.3,59.8,51.0,93,65,28,28.79,28.64,14,1,14,0.00
2013-6-24,89.8,74.4,63.8,71.0,62.7,53.5,93,71,35,28.69,28.55,18,2,18,0.32
2013-6-25,88.5,73.2,60.7,73.7,61.6,54.0,95,72,33,28.60,28.39,17,1,17,0.09
2013-6-26,80.7,70.9,62.4,68.5,62.2,58.0,95,76,49,28.48,28.35,19,2,19,0.05
2013-6-27,85.5,71.1,61.7,69.0,63.4,59.0,95,79,41,28.48,28.30,7,1,7,0.16
2013-6-28,84.8,73.7,63.6,69.7,63.3,55.0,95,73,40,28.31,28.11,17,1,17,2.37
2013-6-29,84.5,72.4,63.8,68.5,60.4,50.0,95,71,32,28.31,28.10,13,1,13,0.03
2013-6-30,83.8,71.9,61.3,71.0,64.5,57.5,95,80,44,28.54,28.30,9,1,9,0.39
2013-7-1,74.8,70.7,67.2,71.3,68.3,65.5,95,92,87,28.67,28.54,6,0,6,0.33
2013-7-2,85.5,74.5,69.4,72.7,68.4,64.0,92,82,51,28.79,28.66,11,1,11,0.16
2013-7-3,86.8,75.4,68.2,71.3,66.6,61.0,95,76,44,28.87,28.75,14,1,14,0.00
2013-7-4,90.8,78.2,66.0,78.0,64.6,56.0,95,68,32,28.91,28.76,17,1,17,0.00
2013-7-5,91.9,79.0,67.9,71.0,65.0,56.0,95,67,32,28.86,28.70,12,2,12,0.00
2013-7-6,86.8,76.9,66.2,69.0,64.5,57.0,92,68,39,28.76,28.66,17,2,18,0.00
2013-7-7,92.3,74.3,63.8,73.3,66.1,59.5,94,78,38,28.70,28.55,12,1,12,0.00
2013-7-8,83.3,75.0,67.6,68.0,63.7,56.5,94,71,41,28.67,28.54,17,2,17,0.00
2013-7-9,81.9,72.5,67.3,71.0,67.1,63.0,92,84,55,28.73,28.63,6,0,6,0.05
2013-7-10,85.4,73.8,68.8,72.0,68.5,66.0,93,84,59,28.65,28.41,14,1,14,0.18
2013-7-11,81.2,72.3,64.3,70.5,62.7,51.0,95,75,37,28.57,28.38,13,2,14,0.02
2013-7-12,81.1,69.6,60.7,61.5,56.4,50.5,88,66,37,28.78,28.56,10,1,11,0.00
2013-7-13,74.4,67.6,61.9,66.7,61.3,56.0,90,81,69,28.92,28.78,4,0,4,0.01
2013-7-14,89.9,76.5,66.4,69.0,64.6,57.0,93,70,34,28.98,28.85,12,1,14,0.00
2013-7-15,89.9,77.7,66.1,69.3,63.5,54.0,95,67,34,28.90,28.78,11,2,11,0.00
2013-7-16,90.5,77.1,63.6,69.0,60.6,50.0,93,63,29,28.88,28.75,9,2,9,0.00
2013-7-17,92.9,77.8,63.5,76.0,62.5,55.0,94,65,30,28.88,28.66,9,2,9,0.00
2013-7-18,93.3,80.3,69.4,71.0,64.2,56.0,92,63,32,28.73,28.59,9,2,9,0.00
2013-7-19,92.0,80.6,68.9,71.0,64.2,57.0,90,61,35,28.59,28.41,9,2,9,0.00
2013-7-20,86.3,75.5,62.3,69.0,59.7,54.0,85,61,37,28.46,28.34,9,2,9,0.00
2013-7-21,83.8,72.3,59.8,65.0,56.6,48.0,89,62,30,28.63,28.44,9,2,9,0.00
2013-7-22,84.6,71.1,59.1,66.0,60.0,56.0,92,72,40,28.64,28.46,6,1,7,0.38
2013-7-23,82.3,71.3,64.5,71.0,64.1,58.0,92,80,47,28.46,28.21,9,1,9,1.54
2013-7-24,77.7,68.0,56.4,65.0,55.1,45.0,95,68,34,28.54,28.19,9,2,9,0.01
2013-7-25,72.8,61.2,49.8,57.0,49.0,42.0,89,66,41,28.69,28.53,9,1,9,0.00
2013-7-26,77.9,64.6,55.7,58.0,55.0,50.0,91,73,44,28.64,28.57,9,1,9,0.00
2013-7-27,84.2,68.0,51.6,66.0,54.7,45.0,94,68,27,28.70,28.55,9,1,9,0.00
2013-7-28,82.4,68.6,58.6,66.0,60.2,55.0,93,77,43,28.64,28.54,7,1,7,0.00
2013-7-29,83.8,71.2,59.4,69.0,57.3,45.0,93,66,28,28.67,28.55,9,1,9,0.00
2013-7-30,77.3,66.8,57.4,57.0,50.2,45.0,88,58,34,28.75,28.62,9,2,9,0.00
2013-7-31,82.9,66.5,53.4,68.0,53.7,46.0,94,69,31,28.77,28.60,6,1,6,0.00
2013-8-1,78.2,63.2,52.5,64.0,57.3,50.0,94,83,51,28.60,28.43,10,1,12,0.42
2013-8-2,79.3,68.6,58.9,65.0,54.9,45.0,95,67,32,28.49,28.37,19,2,19,0.01
2013-8-3,78.5,69.7,57.7,57.0,48.5,39.0,86,49,27,28.46,28.39,16,3,16,0.00
2013-8-4,75.5,62.9,51.6,59.0,50.3,43.0,91,67,34,28.48,28.38,17,3,18,0.23
2013-8-5,73.6,59.7,48.4,50.0,43.8,33.0,92,62,25,28.61,28.44,17,3,19,0.01
2013-8-6,78.8,62.2,44.7,61.0,47.6,37.0,95,65,26,28.74,28.57,7,1,8,0.00
2013-8-7,79.5,66.4,55.0,60.0,53.3,45.0,92,67,32,28.77,28.66,10,1,10,0.00
2013-8-8,81.9,71.8,63.9,66.0,63.2,59.0,91,76,49,28.69,28.60,9,1,9,0.05
2013-8-9,77.2,70.7,65.1,72.0,66.5,62.0,92,88,74,28.61,28.40,10,1,11,2.48
2013-8-10,77.2,68.3,58.3,65.0,50.2,36.0,93,56,25,28.60,28.41,20,3,22,0.00
2013-8-11,78.5,62.8,48.3,59.0,48.0,40.0,92,63,30,28.70,28.58,16,2,16,0.00
2013-8-12,81.1,65.8,53.3,61.0,52.0,44.0,93,68,30,28.64,28.49,12,1,12,0.00
2013-8-13,74.4,65.0,58.9,65.0,59.8,56.0,91,85,64,28.50,28.28,10,1,10,0.58
2013-8-14,69.6,60.7,51.0,59.0,46.7,42.0,87,61,40,28.52,28.26,22,3,23,0.00
2013-8-15,73.3,59.0,47.3,54.0,46.6,39.0,93,68,30,28.68,28.51,14,2,14,0.00
2013-8-16,78.3,60.8,47.2,62.0,47.8,38.0,93,69,25,28.78,28.62,12,1,12,0.00
2013-8-17,81.6,63.3,49.2,64.0,52.5,44.0,94,73,30,28.91,28.73,5,1,6,0.00
2013-8-18,79.5,64.1,52.8,65.0,54.3,47.0,93,75,36,28.89,28.64,7,0,10,0.00
2013-8-19,79.3,66.3,55.5,61.0,54.6,47.0,92,70,36,28.67,28.57,13,2,13,0.00
2013-8-20,81.6,68.5,56.1,59.0,53.0,47.0,91,62,33,28.74,28.57,15,2,16,0.00
2013-8-21,85.4,69.8,57.5,65.0,56.3,47.0,93,68,28,28.81,28.61,13,2,14,0.00
2013-8-22,87.4,72.8,57.9,67.0,58.7,50.0,91,66,31,28.64,28.44,12,2,13,0.00
2013-8-23,76.9,65.7,50.8,62.0,52.3,44.0,90,65,35,28.68,28.45,12,1,12,0.00
2013-8-24,80.8,61.0,46.2,59.0,46.5,39.0,92,66,24,28.93,28.68,7,1,7,0.00
2013-8-25,80.8,63.1,46.2,61.0,48.2,37.0,95,67,22,28.97,28.74,11,1,11,0.00
2013-8-26,77.8,67.9,59.8,63.0,57.7,50.0,89,72,48,28.75,28.48,17,2,17,0.29
2013-8-27,86.0,71.7,63.5,68.0,62.8,57.0,92,76,41,28.56,28.43,7,1,7,0.08
2013-8-28,88.3,70.8,60.7,71.0,61.7,57.0,92,77,37,28.56,28.45,5,1,9,0.01
2013-8-29,74.7,66.1,61.9,63.0,59.4,56.0,90,80,55,28.67,28.52,12,1,16,0.02
2013-8-30,85.7,70.4,59.1,65.0,58.6,50.0,92,71,32,28.60,28.44,13,1,13,0.00
2013-8-31,84.9,72.5,65.7,70.0,65.0,61.0,90,79,52,28.47,28.40,12,1,12,0.22
2013-9-1,84.1,71.8,63.9,70.0,65.6,61.0,92,83,53,28.52,28.41,8,1,9,0.02
2013-9-2,81.4,70.8,65.3,72.0,65.9,60.0,92,86,64,28.45,28.32,14,0,14,0.33
2013-9-3,76.8,65.6,57.8,64.0,56.0,47.0,94,74,43,28.42,28.28,13,2,13,0.00
2013-9-4,78.3,65.3,54.5,55.0,50.1,40.0,91,63,27,28.55,28.40,17,2,17,0.00
2013-9-5,70.7,60.5,43.8,56.0,45.2,28.0,91,62,21,28.65,28.42,17,2,17,0.00
2013-9-6,70.3,52.1,37.8,52.0,37.9,24.0,95,66,25,28.80,28.58,11,1,11,0.00
2013-9-7,79.1,59.4,43.9,55.0,44.5,32.0,94,66,20,28.62,28.41,7,1,12,0.00
2013-9-8,69.3,59.4,42.4,59.0,47.4,33.0,90,69,29,28.60,28.33,22,2,22,0.00
2013-9-9,72.9,53.4,37.7,54.0,41.0,32.0,95,69,27,28.77,28.58,10,1,11,0.00
2013-9-10,79.7,61.2,49.9,69.0,56.3,47.0,92,86,62,28.67,28.58,11,0,11,0.41
2013-9-11,93.5,76.4,62.3,77.0,64.5,57.0,94,73,33,28.74,28.57,31,2,31,0.29
2013-9-12,83.9,69.9,62.8,72.0,63.5,57.0,93,82,53,28.57,28.26,16,1,18,0.83
2013-9-13,76.3,63.6,54.9,62.0,56.2,47.0,92,78,46,28.34,28.20,17,2,17,0.25
2013-9-14,62.4,54.9,49.5,47.0,45.0,42.0,88,70,49,28.57,28.34,21,3,21,0.01
2013-9-15,71.8,54.9,39.7,51.0,43.5,38.0,95,70,33,28.72,28.56,12,1,12,0.00
2013-9-16,66.1,54.7,39.0,52.0,44.1,32.0,89,69,46,28.72,28.53,17,2,17,0.02
2013-9-17,66.8,48.6,35.3,42.0,34.4,28.0,92,63,26,28.94,28.72,11,1,11,0.00
2013-9-18,76.5,52.5,36.6,56.0,40.5,32.0,97,72,22,28.82,28.64,11,1,11,0.00
2013-9-19,80.5,57.4,41.9,59.0,46.8,40.0,96,74,30,28.73,28.58,7,1,7,0.00
2013-9-20,81.7,59.0,44.3,61.0,48.7,42.0,97,75,26,28.68,28.52,7,1,7,0.00
2013-9-21,72.8,62.2,45.4,62.0,54.3,43.0,94,78,45,28.52,28.23,11,1,14,0.08
2013-9-22,64.9,57.4,47.9,62.0,45.9,35.0,93,67,42,28.38,28.16,23,3,23,0.13
2013-9-23,60.4,47.3,37.5,41.0,37.2,33.0,93,71,40,28.50,28.34,20,3,21,0.07
2013-9-24,65.2,47.6,33.6,43.0,37.1,32.0,94,72,30,28.48,28.39,24,3,24,0.01
2013-9-25,73.9,55.1,42.0,54.0,44.4,38.0,93,72,32,28.50,28.38,10,1,10,0.01
2013-9-26,68.6,54.3,44.9,49.0,44.1,38.0,93,73,36,28.62,28.50,10,1,10,0.00
2013-9-27,61.2,51.1,43.2,54.0,45.8,41.0,95,84,54,28.78,28.61,7,1,7,0.00
2013-9-28,75.3,54.9,41.8,57.0,45.5,40.0,96,77,31,28.90,28.75,7,1,7,0.00
2013-9-29,74.7,53.8,40.9,58.0,44.6,38.0,95,77,28,28.77,28.59,7,1,7,0.00
2013-9-30,75.2,53.3,38.6,56.0,44.2,37.0,95,77,32,28.62,28.48,7,1,7,0.00
2013-10-1,79.3,58.5,44.6,59.0,48.1,43.0,96,74,33,28.54,28.44,16,2,16,0.00
2013-10-2,74.7,62.0,49.5,58.0,50.0,46.0,93,68,42,28.54,28.41,22,3,24,0.00
2013-10-3,78.7,59.0,43.7,58.0,44.2,24.0,93,66,15,28.68,28.52,11,2,11,0.00
2013-10-4,62.7,56.9,50.7,56.0,52.1,47.0,89,85,70,28.63,28.56,4,0,4,0.00
2013-10-5,68.8,60.8,56.5,57.0,53.0,50.0,84,77,55,28.67,28.58,3,0,4,0.00
2013-10-6,58.4,54.7,51.6,51.0,46.6,43.0,78,74,71,28.70,28.61,7,0,7,0.00
2013-10-7,70.3,57.1,47.9,59.0,46.9,36.0,75,69,62,28.61,28.31,22,1,23,0.01
2013-10-8,64.4,50.5,37.7,44.0,34.4,28.0,75,57,27,28.82,28.43,17,2,18,0.00
2013-10-9,64.8,45.1,32.5,45.0,32.3,26.0,76,62,32,28.96,28.80,10,1,10,0.00
2013-10-10,55.4,44.8,35.6,47.0,34.4,26.0,73,66,51,28.80,28.65,5,0,5,0.00
2013-10-11,72.6,51.6,38.2,50.0,34.2,23.0,70,53,16,28.71,28.59,5,1,7,0.00
2013-10-12,62.5,50.5,40.9,50.0,35.4,18.0,66,56,26,28.87,28.63,8,1,8,0.00
2013-10-13,67.1,54.6,46.1,48.0,38.2,23.0,70,54,36,28.96,28.85,8,1,8,0.00
2013-10-14,72.4,56.2,40.5,50.0,38.3,11.0,69,52,27,28.86,28.76,6,1,6,0.00
2013-10-15,67.2,58.2,48.5,54.0,34.8,14.0,66,43,16,28.79,28.64,5,1,5,0.00
2013-10-16,61.8,51.6,45.6,48.0,17.2,-23.0,62,30,3,28.64,28.39,6,1,6,0.00
2013-10-17,72.8,57.5,48.8,50.0,-2.8,-40.0,59,18,1,28.42,28.20,21,1,21,0.00
2013-10-18,63.9,55.1,41.2,46.0,20.4,-40.0,60,35,2,28.38,28.15,22,3,22,0.00
2013-10-19,66.8,50.7,37.5,45.0,7.3,-40.0,59,27,1,28.47,28.23,9,1,9,0.00
2013-10-20,59.4,47.7,36.2,39.0,7.5,-40.0,61,28,1,28.46,28.17,19,3,19,0.00
2013-10-21,68.6,47.7,33.4,42.0,0.8,-40.0,58,21,2,28.60,28.41,18,2,18,0.00
2013-10-22,59.4,46.8,33.4,43.0,5.8,-40.0,56,27,1,28.41,28.23,14,2,17,0.00
2013-10-23,55.9,42.5,30.9,36.0,18.7,-40.0,67,45,1,28.24,28.09,12,2,12,0.00
2013-10-24,49.9,40.1,29.4,32.0,19.7,-40.0,68,46,2,28.33,28.12,22,3,22,0.00
2013-10-25,47.1,36.4,28.5,31.0,2.8,-40.0,66,32,2,28.53,28.32,22,3,24,0.01
2013-10-26,52.4,41.5,28.9,32.0,10.1,-40.0,65,33,1,28.55,28.30,19,2,20,0.08
2013-10-27,51.4,43.0,30.8,35.0,28.4,0.0,68,56,29,28.47,28.24,21,2,26,0.04
2013-10-28,55.4,38.5,25.9,35.0,8.3,-40.0,68,34,1,28.73,28.46,21,2,22,0.08
2013-10-29,49.7,32.1,22.3,28.0,11.6,-13.0,72,42,15,28.85,28.72,11,2,14,0.00
2013-10-30,55.2,37.3,27.0,41.0,7.3,-40.0,73,39,1,28.72,28.63,10,1,11,0.02
2013-10-31,58.7,44.4,30.7,-23.0,-39.2,-40.0,0,0,100,28.63,28.26,8,1,11,0.59
2013-11-1,67.1,58.3,45.2,52.0,-10.2,-40.0,63,15,1,28.26,27.97,22,2,23,0.46
2013-11-2,64.8,47.8,36.9,46.0,-12.9,-40.0,62,16,1,28.23,28.09,15,2,16,0.03
2013-11-3,45.6,36.5,24.2,31.0,18.5,-40.0,73,51,19,28.81,28.23,18,2,18,0.01
2013-11-4,44.5,28.4,18.7,23.0,13.7,4.0,74,55,21,29.04,28.81,10,1,10,0.00
2013-11-5,55.1,34.3,19.8,33.0,11.3,-23.0,72,39,4,29.06,28.88,9,1,9,0.00
2013-11-6,61.4,47.0,34.6,45.0,10.6,-40.0,67,36,1,28.89,28.48,15,1,17,0.00
2013-11-7,58.9,49.4,34.6,44.0,26.5,-40.0,74,50,1,28.48,28.21,22,3,22,0.13
2013-11-8,44.2,34.0,24.7,35.0,15.9,-40.0,77,51,1,28.50,28.25,22,2,22,0.04
2013-11-9,44.4,33.7,24.4,31.0,20.6,11.0,78,57,36,28.61,28.37,15,2,17,0.00
2013-11-10,47.9,39.1,28.8,38.0,7.1,-40.0,74,40,2,28.38,28.21,28,3,34,0.03
2013-11-11,49.6,39.9,33.5,32.0,25.3,18.0,77,56,35,28.54,28.30,25,3,25,0.00
2013-11-12,43.7,29.6,18.9,35.0,19.3,4.0,80,63,25,28.57,28.31,20,4,20,0.00
2013-11-13,33.4,24.6,18.5,21.0,12.5,4.0,79,58,31,28.66,28.50,21,3,21,0.00
2013-11-14,53.1,34.9,25.9,26.0,17.4,8.0,79,51,24,28.54,28.42,17,2,22,0.00
2013-11-15,60.4,36.9,23.3,31.0,21.4,4.0,80,59,10,28.62,28.48,9,1,9,0.00
2013-11-16,65.3,42.8,31.3,35.0,24.6,-13.0,77,53,10,28.79,28.58,9,2,9,0.00
2013-11-17,56.1,41.5,31.6,0.0,-38.1,-40.0,19,1,1,28.68,28.29,6,0,6,0.17
2013-11-18,64.6,53.2,40.3,45.0,0.5,-40.0,66,27,1,28.29,28.04,21,3,21,0.45
2013-11-19,41.3,34.2,22.4,29.0,20.4,14.0,72,56,39,28.68,28.16,26,6,27,0.01
2013-11-20,44.2,25.9,16.6,21.0,9.9,-6.0,72,50,19,28.96,28.68,10,2,10,0.00
2013-11-21,49.9,31.0,14.8,29.0,11.1,-23.0,72,43,7,28.97,28.77,12,1,12,0.00
2013-11-22,47.9,39.9,35.5,29.0,-29.5,-40.0,68,8,4,28.77,28.30,22,1,22,0.09
2013-11-23,46.0,33.5,20.8,31.0,20.2,-23.0,71,57,15,28.37,28.21,24,5,26,0.00
2013-11-24,23.0,17.4,12.3,14.0,2.6,-6.0,75,49,25,28.56,28.19,32,7,38,0.04
2013-11-25,34.5,21.0,11.7,18.0,5.0,-13.0,72,46,27,28.72,28.55,19,2,19,0.00
2013-11-26,35.1,29.8,24.9,24.0,1.8,-40.0,71,37,1,28.67,28.39,11,1,12,0.03
2013-11-27,42.1,34.6,32.1,18.0,-33.3,-40.0,50,5,3,28.39,27.75,26,2,26,1.60
2013-11-28,32.7,21.9,11.7,21.0,8.4,-23.0,72,53,9,28.75,27.91,26,4,26,0.00
2013-11-29,31.3,19.1,10.2,16.0,-3.2,-40.0,73,37,1,29.04,28.75,20,2,20,0.00
2013-11-30,31.9,18.3,4.6,16.0,0.3,-23.0,77,43,10,29.08,28.75,7,1,7,0.01
2013-12-1,40.8,29.8,22.9,29.0,-9.7,-40.0,72,27,1,28.75,28.44,2,0,2,0.04
2013-12-2,40.0,33.3,26.1,-23.0,-39.6,-40.0,5,0,1,28.39,28.30,3,1,3,0.37
2013-12-3,48.2,33.2,25.5,36.0,-20.0,-40.0,61,15,1,28.38,28.29,14,1,14,0.18
2013-12-4,48.5,30.8,23.7,33.0,-18.6,-40.0,66,17,1,28.56,28.36,7,1,9,0.03
2013-12-5,51.6,37.3,28.8,-40.0,-40.0,-40.0,0,0,100,28.57,28.36,10,0,10,0.14
2013-12-6,48.9,39.8,32.1,28.0,-24.1,-40.0,56,10,2,28.56,28.31,19,2,19,0.09
2013-12-7,36.2,29.9,24.2,24.0,4.8,-40.0,69,45,3,28.81,28.47,26,2,26,0.05
2013-12-8,28.8,24.7,18.9,18.0,15.2,0.0,73,64,42,28.93,28.80,12,1,12,0.00
2013-12-9,35.2,27.4,21.6,16.0,-30.7,-40.0,73,8,1,28.81,28.28,14,0,14,0.00
2013-12-10,34.8,27.3,13.7,26.0,12.9,-40.0,78,56,7,28.34,28.18,24,2,24,0.00
2013-12-11,28.2,20.7,13.1,18.0,10.8,-23.0,80,63,24,28.53,28.34,22,2,22,0.00
2013-12-12,21.2,13.0,4.4,14.0,4.6,0.0,83,65,33,28.60,28.32,19,3,24,0.00
2013-12-13,24.5,14.9,4.8,18.0,9.0,0.0,83,73,59,28.69,28.27,18,2,19,0.01
2013-12-14,11.3,7.8,4.9,8.0,3.6,0.0,84,76,61,28.86,28.43,7,1,7,0.00
2013-12-15,32.2,21.8,11.4,26.0,9.3,-13.0,80,59,14,28.43,27.87,17,2,27,0.00
2013-12-16,23.7,16.8,1.4,16.0,6.6,-6.0,87,61,25,28.49,28.07,30,3,30,0.00
2013-12-17,13.5,4.8,-6.3,8.0,2.8,-6.0,91,83,66,28.51,28.26,5,1,5,0.00
2013-12-18,28.5,19.3,9.3,23.0,10.9,-6.0,82,66,33,28.37,28.23,16,1,16,0.00
2013-12-19,42.4,27.0,13.9,26.0,15.5,-6.0,82,61,28,28.44,28.33,13,2,14,0.20
2013-12-20,46.6,33.4,25.9,35.0,-7.2,-40.0,80,29,4,28.44,28.30,6,1,6,0.44
2013-12-21,49.2,37.0,32.7,39.0,-26.7,-40.0,71,10,6,28.34,28.25,10,1,10,0.39
2013-12-22,61.5,45.5,36.7,-6.0,-38.7,-40.0,8,0,3,28.34,28.13,14,3,16,0.08
2013-12-23,42.3,38.4,32.9,-13.0,-39.6,-40.0,12,0,2,28.52,28.34,19,2,19,0.60
2013-12-24,33.6,26.2,15.6,18.0,8.9,-40.0,66,48,1,28.57,28.42,36,4,36,0.00
2013-12-25,28.9,15.2,6.3,11.0,4.0,0.0,73,58,26,28.79,28.57,24,2,24,0.00
2013-12-26,29.4,21.8,15.3,11.0,1.4,-40.0,74,44,2,28.74,28.42,12,1,12,0.01
2013-12-27,33.7,26.1,14.3,21.0,8.2,-40.0,64,49,2,28.59,28.51,17,2,17,0.03
2013-12-28,47.3,29.3,17.5,31.0,-12.5,-40.0,64,21,2,28.54,28.38,15,2,15,0.02
2013-12-29,38.9,32.1,25.9,18.0,-37.6,-40.0,47,1,3,28.37,27.91,8,1,9,0.68
2013-12-30,38.2,25.5,8.2,23.0,4.0,-40.0,75,50,12,28.46,27.97,26,4,26,0.47
2013-12-31,22.5,14.5,4.8,14.0,6.5,-6.0,76,66,38,28.48,28.31,21,2,22,0.00
2014-1-1,22.9,15.9,10.9,11.0,7.6,0.0,77,65,45,28.65,28.45,19,2,21,0.00
2014-1-2,15.6,9.6,3.4,11.0,3.8,0.0,82,73,60,28.62,28.12,11,1,11,0.00